| time (UTC) | temp F | wind direction | speed MPH | gust MPH | rain 1hr in | rain 24hr in | rain mn in | humidity % | barometer mb |
| 20260507051508 | 58 | 166 | 0.0 | 3.0 | 0.00 | 0.00 | 0.00 | 83 | 1018.7 |
| 20260507051004 | 58 | 166 | 0.0 | 0.0 | 0.00 | 0.00 | 0.00 | 82 | 1018.7 |
| 20260507050504 | 59 | 166 | 0.0 | 1.0 | 0.00 | 0.00 | 0.00 | 83 | 1018.6 |
| 20260507050014 | 58 | 166 | 0.0 | 2.0 | 0.00 | 0.00 | 0.00 | 83 | 1018.7 |
| 20260507045507 | 59 | 166 | 0.0 | 2.0 | 0.00 | 0.00 | 0.00 | 83 | 1018.7 |
| 20260507045008 | 59 | 166 | 0.0 | 1.0 | 0.00 | 0.00 | 0.00 | 83 | 1018.7 |
| 20260507044525 | 59 | 166 | 0.0 | 3.0 | 0.00 | 0.00 | 0.00 | 84 | 1018.7 |
| 20260507044009 | 59 | 166 | 0.0 | 3.0 | 0.00 | 0.00 | 0.00 | 84 | 1018.6 |
| 20260507043509 | 59 | 187 | 0.0 | 2.0 | 0.00 | 0.00 | 0.00 | 84 | 1018.6 |
| 20260507043021 | 59 | 188 | 0.0 | 2.0 | 0.00 | 0.00 | 0.00 | 84 | 1018.6 |
| 20260507042511 | 59 | 188 | 0.0 | 2.0 | 0.00 | 0.00 | 0.00 | 83 | 1018.5 |
| 20260507042004 | 59 | 188 | 0.0 | 2.0 | 0.00 | 0.00 | 0.00 | 84 | 1018.5 |
| 20260507041520 | 59 | 197 | 0.0 | 2.0 | 0.00 | 0.00 | 0.00 | 83 | 1018.5 |
| 20260507041004 | 60 | 190 | 0.0 | 2.0 | 0.00 | 0.00 | 0.00 | 83 | 1018.5 |
| 20260507040506 | 60 | 190 | 0.0 | 2.0 | 0.00 | 0.00 | 0.00 | 83 | 1018.4 |
| 20260507040013 | 60 | 190 | 0.0 | 2.0 | 0.00 | 0.00 | 0.00 | 83 | 1018.4 |
| 20260507035508 | 60 | 202 | 0.0 | 2.0 | 0.00 | 0.00 | 0.00 | 82 | 1018.2 |
| 20260507035007 | 60 | 202 | 0.0 | 2.0 | 0.00 | 0.00 | 0.00 | 82 | 1018.2 |
| 20260507034518 | 60 | 210 | 0.0 | 2.0 | 0.00 | 0.00 | 0.00 | 81 | 1018.1 |
| 20260507034008 | 60 | 227 | 1.0 | 2.0 | 0.00 | 0.00 | 0.00 | 81 | 1018.0 |
| 20260507033508 | 61 | 159 | 1.0 | 3.0 | 0.00 | 0.00 | 0.00 | 80 | 1017.9 |
| 20260507033020 | 61 | 155 | 0.0 | 3.0 | 0.00 | 0.00 | 0.00 | 80 | 1017.8 |
| 20260507032513 | 61 | 145 | 0.0 | 2.0 | 0.00 | 0.00 | 0.00 | 79 | 1017.9 |
| 20260507032013 | 61 | 209 | 0.0 | 2.0 | 0.00 | 0.00 | 0.00 | 78 | 1017.8 |
| 20260507031529 | 61 | 209 | 0.0 | 2.0 | 0.00 | 0.00 | 0.00 | 78 | 1017.7 |
| 20260507031015 | 61 | 209 | 0.0 | 2.0 | 0.00 | 0.00 | 0.00 | 78 | 1017.7 |
| 20260507030508 | 61 | 221 | 0.0 | 2.0 | 0.00 | 0.00 | 0.00 | 77 | 1017.6 |
| 20260507030013 | 61 | 210 | 0.0 | 3.0 | 0.00 | 0.00 | 0.00 | 77 | 1017.6 |
| 20260507025506 | 62 | 199 | 1.0 | 3.0 | 0.00 | 0.00 | 0.00 | 76 | 1017.6 |
| 20260507025004 | 62 | 205 | 0.0 | 4.0 | 0.00 | 0.00 | 0.00 | 75 | 1017.5 |
| 20260507024515 | 62 | 219 | 1.0 | 4.0 | 0.00 | 0.00 | 0.00 | 74 | 1017.5 |
| 20260507024010 | 62 | 222 | 1.0 | 4.0 | 0.00 | 0.00 | 0.00 | 73 | 1017.5 |
| 20260507023511 | 62 | 213 | 0.0 | 3.0 | 0.00 | 0.00 | 0.00 | 72 | 1017.5 |
| 20260507023018 | 63 | 204 | 1.0 | 4.0 | 0.00 | 0.00 | 0.00 | 72 | 1017.5 |
| 20260507022512 | 63 | 210 | 1.0 | 4.0 | 0.00 | 0.00 | 0.00 | 72 | 1017.4 |
| 20260507022013 | 63 | 223 | 2.0 | 4.0 | 0.00 | 0.00 | 0.00 | 72 | 1017.4 |
| 20260507021524 | 63 | 234 | 1.0 | 5.0 | 0.00 | 0.00 | 0.00 | 72 | 1017.5 |
| 20260507021012 | 63 | 200 | 2.0 | 5.0 | 0.00 | 0.00 | 0.00 | 72 | 1017.4 |
| 20260507020510 | 64 | 219 | 2.0 | 5.0 | 0.00 | 0.00 | 0.00 | 72 | 1017.4 |
| 20260507020024 | 64 | 188 | 2.0 | 4.0 | 0.00 | 0.00 | 0.00 | 72 | 1017.4 |
| 20260507015504 | 64 | 152 | 1.0 | 5.0 | 0.00 | 0.00 | 0.00 | 71 | 1017.4 |
| 20260507015005 | 64 | 219 | 2.0 | 6.0 | 0.00 | 0.00 | 0.00 | 71 | 1017.4 |
| 20260507014516 | 65 | 218 | 3.0 | 6.0 | 0.00 | 0.00 | 0.00 | 69 | 1017.5 |
| 20260507014007 | 65 | 219 | 2.0 | 5.0 | 0.00 | 0.00 | 0.00 | 68 | 1017.4 |
| 20260507013509 | 65 | 167 | 2.0 | 5.0 | 0.00 | 0.00 | 0.00 | 67 | 1017.4 |
| 20260507013023 | 66 | 221 | 1.0 | 8.0 | 0.00 | 0.00 | 0.00 | 67 | 1017.3 |
| 20260507012508 | 66 | 229 | 4.0 | 8.0 | 0.00 | 0.00 | 0.00 | 66 | 1017.3 |
| 20260507012011 | 66 | 218 | 2.0 | 6.0 | 0.00 | 0.00 | 0.00 | 65 | 1017.2 |
| 20260507011521 | 66 | 219 | 2.0 | 6.0 | 0.00 | 0.00 | 0.00 | 64 | 1017.3 |
| 20260507011008 | 66 | 196 | 1.0 | 9.0 | 0.00 | 0.00 | 0.00 | 64 | 1017.4 |
| 20260507010510 | 66 | 227 | 2.0 | 9.0 | 0.00 | 0.00 | 0.00 | 63 | 1017.4 |
| 20260507010025 | 66 | 234 | 3.0 | 9.0 | 0.00 | 0.00 | 0.00 | 63 | 1017.5 |
| 20260507005511 | 66 | 224 | 3.0 | 7.0 | 0.00 | 0.00 | 0.00 | 63 | 1017.4 |
| 20260507005004 | 66 | 220 | 2.0 | 9.0 | 0.00 | 0.00 | 0.00 | 63 | 1017.4 |
| 20260507004528 | 66 | 204 | 4.0 | 9.0 | 0.00 | 0.00 | 0.00 | 64 | 1017.4 |
| 20260507004009 | 67 | 236 | 3.0 | 9.0 | 0.00 | 0.00 | 0.00 | 63 | 1017.3 |
| 20260507003509 | 67 | 212 | 3.0 | 9.0 | 0.00 | 0.00 | 0.00 | 62 | 1017.3 |
| 20260507003019 | 67 | 240 | 4.0 | 9.0 | 0.00 | 0.00 | 0.00 | 61 | 1017.3 |
| 20260507002506 | 67 | 211 | 2.0 | 8.0 | 0.00 | 0.00 | 0.00 | 60 | 1017.3 |
| 20260507002009 | 67 | 224 | 2.0 | 8.0 | 0.00 | 0.00 | 0.00 | 60 | 1017.3 |
| 20260507001526 | 67 | 213 | 4.0 | 7.0 | 0.00 | 0.00 | 0.00 | 60 | 1017.3 |
| 20260507001009 | 68 | 233 | 2.0 | 9.0 | 0.00 | 0.00 | 0.00 | 59 | 1017.2 |
| 20260507000510 | 67 | 263 | 3.0 | 9.0 | 0.00 | 0.00 | 0.00 | 58 | 1017.1 |
| 20260507000027 | 68 | 136 | 3.0 | 9.0 | 0.00 | 0.00 | 0.00 | 58 | 1017.1 |
| 20260506235507 | 68 | 291 | 3.0 | 9.0 | 0.00 | 0.00 | 0.00 | 58 | 1017.1 |
| 20260506235009 | 68 | 214 | 3.0 | 9.0 | 0.00 | 0.00 | 0.00 | 57 | 1017.2 |
| 20260506234535 | 68 | 253 | 4.0 | 11.0 | 0.00 | 0.00 | 0.00 | 57 | 1017.2 |
| 20260506234007 | 68 | 102 | 3.0 | 11.0 | 0.00 | 0.00 | 0.00 | 57 | 1017.2 |
| 20260506233509 | 68 | 209 | 4.0 | 10.0 | 0.00 | 0.00 | 0.00 | 57 | 1017.2 |
| 20260506233014 | 68 | 221 | 4.0 | 10.0 | 0.00 | 0.00 | 0.00 | 57 | 1017.3 |
| 20260506232505 | 69 | 261 | 3.0 | 8.0 | 0.00 | 0.00 | 0.00 | 58 | 1017.3 |
| 20260506232007 | 69 | 227 | 2.0 | 8.0 | 0.00 | 0.00 | 0.00 | 58 | 1017.4 |
| 20260506231532 | 69 | 261 | 3.0 | 10.0 | 0.00 | 0.00 | 0.00 | 59 | 1017.3 |
| 20260506231007 | 69 | 216 | 2.0 | 10.0 | 0.00 | 0.00 | 0.00 | 59 | 1017.4 |
| 20260506230510 | 68 | 176 | 5.0 | 11.0 | 0.00 | 0.00 | 0.00 | 59 | 1017.4 |
| 20260506230023 | 69 | 221 | 6.0 | 11.0 | 0.00 | 0.00 | 0.00 | 59 | 1017.5 |
| 20260506225503 | 69 | 246 | 2.0 | 11.0 | 0.00 | 0.00 | 0.00 | 60 | 1017.6 |
| 20260506225003 | 69 | 225 | 3.0 | 11.0 | 0.00 | 0.00 | 0.00 | 60 | 1017.7 |
| 20260506224507 | 69 | 205 | 4.0 | 10.0 | 0.00 | 0.00 | 0.00 | 60 | 1017.8 |
| 20260506224003 | 69 | 224 | 2.0 | 10.0 | 0.00 | 0.00 | 0.00 | 60 | 1017.9 |
| 20260506223507 | 69 | 206 | 4.0 | 10.0 | 0.00 | 0.00 | 0.00 | 60 | 1017.9 |
| 20260506223014 | 68 | 300 | 4.0 | 9.0 | 0.00 | 0.00 | 0.00 | 61 | 1018.0 |
| 20260506222508 | 69 | 186 | 3.0 | 11.0 | 0.00 | 0.00 | 0.00 | 60 | 1018.1 |
| 20260506222008 | 69 | 250 | 3.0 | 13.0 | 0.00 | 0.00 | 0.00 | 61 | 1018.2 |
| 20260506221519 | 70 | 252 | 5.0 | 13.0 | 0.00 | 0.00 | 0.00 | 59 | 1018.3 |
| 20260506221010 | 70 | 188 | 3.0 | 11.0 | 0.00 | 0.00 | 0.00 | 60 | 1018.3 |
| 20260506220511 | 70 | 202 | 3.0 | 10.0 | 0.00 | 0.00 | 0.00 | 59 | 1018.3 |
| 20260506220025 | 70 | 314 | 4.0 | 10.0 | 0.00 | 0.00 | 0.00 | 58 | 1018.4 |
| 20260506215514 | 70 | 181 | 3.0 | 10.0 | 0.00 | 0.00 | 0.00 | 58 | 1018.5 |
| 20260506215012 | 70 | 227 | 4.0 | 10.0 | 0.00 | 0.00 | 0.00 | 58 | 1018.5 |
| 20260506214507 | 70 | 221 | 5.0 | 10.0 | 0.00 | 0.00 | 0.00 | 59 | 1018.5 |
| 20260506214005 | 71 | 261 | 2.0 | 8.0 | 0.00 | 0.00 | 0.00 | 57 | 1018.6 |
| 20260506213503 | 71 | 194 | 3.0 | 9.0 | 0.00 | 0.00 | 0.00 | 58 | 1018.6 |
| 20260506213012 | 70 | 214 | 3.0 | 10.0 | 0.00 | 0.00 | 0.00 | 57 | 1018.7 |
| 20260506212507 | 70 | 290 | 5.0 | 8.0 | 0.00 | 0.00 | 0.00 | 57 | 1018.6 |
| 20260506212007 | 71 | 215 | 3.0 | 9.0 | 0.00 | 0.00 | 0.00 | 58 | 1018.7 |
| 20260506211519 | 70 | 317 | 3.0 | 9.0 | 0.00 | 0.00 | 0.00 | 57 | 1018.7 |
| 20260506211009 | 72 | 172 | 2.0 | 9.0 | 0.00 | 0.00 | 0.00 | 56 | 1018.7 |
| 20260506210511 | 70 | 259 | 3.0 | 9.0 | 0.00 | 0.00 | 0.00 | 59 | 1018.8 |
| 20260506210025 | 70 | 211 | 3.0 | 11.0 | 0.00 | 0.00 | 0.00 | 56 | 1018.8 |
| 20260506205507 | 70 | 195 | 4.0 | 11.0 | 0.00 | 0.00 | 0.00 | 57 | 1019.0 |
| 20260506205010 | 70 | 180 | 3.0 | 8.0 | 0.00 | 0.00 | 0.00 | 57 | 1018.9 |
| 20260506204526 | 70 | 209 | 3.0 | 9.0 | 0.00 | 0.00 | 0.00 | 57 | 1018.9 |
| 20260506204009 | 70 | 223 | 3.0 | 9.0 | 0.00 | 0.00 | 0.00 | 55 | 1018.9 |
| 20260506203504 | 70 | 267 | 3.0 | 9.0 | 0.00 | 0.00 | 0.00 | 57 | 1019.0 |
| 20260506203009 | 70 | 202 | 2.0 | 7.0 | 0.00 | 0.00 | 0.00 | 59 | 1019.1 |
| 20260506202508 | 70 | 230 | 4.0 | 10.0 | 0.00 | 0.00 | 0.00 | 58 | 1019.2 |
| 20260506202007 | 70 | 240 | 4.0 | 10.0 | 0.00 | 0.00 | 0.00 | 58 | 1019.2 |
| 20260506201530 | 69 | 196 | 3.0 | 10.0 | 0.00 | 0.00 | 0.00 | 59 | 1019.2 |
| 20260506201007 | 70 | 207 | 4.0 | 8.0 | 0.00 | 0.00 | 0.00 | 59 | 1019.3 |
| 20260506200507 | 70 | 226 | 3.0 | 8.0 | 0.00 | 0.00 | 0.00 | 57 | 1019.4 |
| 20260506200018 | 71 | 212 | 3.0 | 9.0 | 0.00 | 0.00 | 0.00 | 58 | 1019.4 |
| 20260506195511 | 70 | 244 | 2.0 | 9.0 | 0.00 | 0.00 | 0.00 | 59 | 1019.4 |
| 20260506195011 | 70 | 272 | 4.0 | 7.0 | 0.00 | 0.00 | 0.00 | 59 | 1019.4 |
| 20260506194527 | 70 | 273 | 4.0 | 8.0 | 0.00 | 0.00 | 0.00 | 60 | 1019.5 |
| 20260506194012 | 70 | 208 | 3.0 | 8.0 | 0.00 | 0.00 | 0.00 | 60 | 1019.5 |
| 20260506193510 | 70 | 153 | 4.0 | 9.0 | 0.00 | 0.00 | 0.00 | 60 | 1019.5 |
| 20260506193026 | 70 | 169 | 2.0 | 9.0 | 0.00 | 0.00 | 0.00 | 61 | 1019.6 |
| 20260506192505 | 69 | 212 | 3.0 | 10.0 | 0.00 | 0.00 | 0.00 | 61 | 1019.6 |
| 20260506192005 | 69 | 223 | 3.0 | 11.0 | 0.00 | 0.00 | 0.00 | 61 | 1019.6 |
| 20260506191512 | 70 | 303 | 4.0 | 11.0 | 0.00 | 0.00 | 0.00 | 61 | 1019.6 |
| 20260506191011 | 70 | 219 | 3.0 | 6.0 | 0.00 | 0.00 | 0.00 | 60 | 1019.7 |
| 20260506190511 | 70 | 196 | 2.0 | 8.0 | 0.00 | 0.00 | 0.00 | 61 | 1019.6 |
| 20260506190020 | 70 | 215 | 3.0 | 8.0 | 0.00 | 0.00 | 0.00 | 61 | 1019.6 |
| 20260506185507 | 70 | 215 | 2.0 | 9.0 | 0.00 | 0.00 | 0.00 | 61 | 1019.6 |
| 20260506185009 | 69 | 209 | 3.0 | 9.0 | 0.00 | 0.00 | 0.00 | 62 | 1019.7 |
| 20260506184524 | 69 | 238 | 4.0 | 11.0 | 0.00 | 0.00 | 0.00 | 62 | 1019.8 |
| 20260506184014 | 69 | 209 | 2.0 | 11.0 | 0.00 | 0.00 | 0.00 | 63 | 1019.8 |
| 20260506183508 | 69 | 236 | 2.0 | 6.0 | 0.00 | 0.00 | 0.00 | 62 | 1019.8 |
| 20260506183031 | 69 | 213 | 3.0 | 7.0 | 0.00 | 0.00 | 0.00 | 62 | 1019.8 |
| 20260506182508 | 70 | 219 | 3.0 | 7.0 | 0.00 | 0.00 | 0.00 | 62 | 1019.9 |
| 20260506182011 | 70 | 317 | 2.0 | 8.0 | 0.00 | 0.00 | 0.00 | 62 | 1019.8 |
| 20260506181510 | 69 | 25 | 2.0 | 8.0 | 0.00 | 0.00 | 0.00 | 63 | 1019.9 |
| 20260506181007 | 69 | 281 | 4.0 | 8.0 | 0.00 | 0.00 | 0.00 | 64 | 1019.9 |
| 20260506180507 | 69 | 275 | 3.0 | 6.0 | 0.00 | 0.00 | 0.00 | 62 | 1019.9 |
| 20260506180018 | 69 | 207 | 3.0 | 7.0 | 0.00 | 0.00 | 0.00 | 61 | 1019.9 |
| 20260506175510 | 69 | 251 | 3.0 | 7.0 | 0.00 | 0.00 | 0.00 | 61 | 1020.0 |
| 20260506175007 | 69 | 302 | 2.0 | 7.0 | 0.00 | 0.00 | 0.00 | 61 | 1019.9 |
| 20260506174519 | 69 | 206 | 2.0 | 6.0 | 0.00 | 0.00 | 0.00 | 61 | 1019.9 |
| 20260506174011 | 70 | 220 | 2.0 | 6.0 | 0.00 | 0.00 | 0.00 | 62 | 1019.9 |
| 20260506173508 | 68 | 311 | 1.0 | 8.0 | 0.00 | 0.00 | 0.00 | 62 | 1019.9 |
| 20260506173024 | 68 | 141 | 3.0 | 8.0 | 0.00 | 0.00 | 0.00 | 60 | 1019.9 |
| 20260506172511 | 68 | 209 | 1.0 | 6.0 | 0.00 | 0.00 | 0.00 | 61 | 1019.9 |
| 20260506172009 | 68 | 205 | 2.0 | 6.0 | 0.00 | 0.00 | 0.00 | 60 | 1019.9 |
| 20260506171530 | 68 | 238 | 2.0 | 6.0 | 0.00 | 0.00 | 0.00 | 62 | 1019.8 |
| 20260506171011 | 67 | 202 | 2.0 | 6.0 | 0.00 | 0.00 | 0.00 | 62 | 1019.8 |
| 20260506170507 | 67 | 210 | 1.0 | 5.0 | 0.00 | 0.00 | 0.00 | 62 | 1019.8 |
| 20260506170014 | 67 | 205 | 2.0 | 6.0 | 0.00 | 0.00 | 0.00 | 60 | 1019.8 |
| 20260506165512 | 67 | 203 | 2.0 | 7.0 | 0.00 | 0.00 | 0.00 | 63 | 1019.9 |
| 20260506165008 | 67 | 352 | 3.0 | 8.0 | 0.00 | 0.00 | 0.00 | 63 | 1019.9 |
| 20260506164522 | 67 | 343 | 1.0 | 8.0 | 0.00 | 0.00 | 0.00 | 62 | 1019.9 |
| 20260506164011 | 66 | 220 | 0.0 | 3.0 | 0.00 | 0.00 | 0.00 | 62 | 1020.0 |
| 20260506163508 | 66 | 237 | 1.0 | 4.0 | 0.00 | 0.00 | 0.00 | 63 | 1020.1 |
| 20260506163025 | 65 | 191 | 2.0 | 4.0 | 0.00 | 0.00 | 0.00 | 63 | 1020.0 |
| 20260506162509 | 65 | 329 | 0.0 | 4.0 | 0.00 | 0.00 | 0.00 | 64 | 1020.0 |
| 20260506162018 | 65 | 225 | 2.0 | 4.0 | 0.00 | 0.00 | 0.00 | 64 | 1020.0 |
| 20260506161526 | 64 | 247 | 0.0 | 4.0 | 0.00 | 0.00 | 0.00 | 64 | 1020.0 |
| 20260506161009 | 63 | 198 | 0.0 | 4.0 | 0.00 | 0.00 | 0.00 | 67 | 1020.0 |
| 20260506160511 | 63 | 187 | 1.0 | 2.0 | 0.00 | 0.00 | 0.00 | 67 | 1020.1 |
| 20260506160030 | 62 | 194 | 0.0 | 3.0 | 0.00 | 0.00 | 0.00 | 65 | 1020.0 |
| 20260506155508 | 63 | 352 | 0.0 | 3.0 | 0.00 | 0.00 | 0.00 | 65 | 1019.9 |
| 20260506155009 | 63 | 9 | 1.0 | 3.0 | 0.00 | 0.00 | 0.00 | 65 | 1020.0 |
| 20260506154522 | 63 | 51 | 1.0 | 5.0 | 0.00 | 0.00 | 0.00 | 66 | 1019.9 |
| 20260506154010 | 62 | 46 | 0.0 | 5.0 | 0.00 | 0.00 | 0.00 | 66 | 1019.9 |
| 20260506153512 | 62 | 89 | 0.0 | 3.0 | 0.00 | 0.00 | 0.00 | 66 | 1020.0 |
| 20260506153024 | 61 | 27 | 1.0 | 4.0 | 0.00 | 0.00 | 0.00 | 68 | 1020.0 |
| 20260506152509 | 61 | 26 | 0.0 | 4.0 | 0.00 | 0.00 | 0.00 | 69 | 1020.0 |
| 20260506152011 | 61 | 61 | 1.0 | 3.0 | 0.00 | 0.00 | 0.00 | 70 | 1020.1 |
| 20260506151526 | 60 | 65 | 1.0 | 4.0 | 0.00 | 0.00 | 0.00 | 72 | 1020.1 |
| 20260506151010 | 59 | 348 | 1.0 | 5.0 | 0.00 | 0.00 | 0.00 | 73 | 1020.1 |
| 20260506150510 | 59 | 53 | 1.0 | 5.0 | 0.00 | 0.00 | 0.00 | 73 | 1020.1 |
| 20260506150027 | 58 | 32 | 1.0 | 5.0 | 0.00 | 0.00 | 0.00 | 73 | 1020.1 |
| 20260506145508 | 58 | 67 | 0.0 | 5.0 | 0.00 | 0.00 | 0.00 | 74 | 1020.1 |
| 20260506145010 | 57 | 66 | 1.0 | 5.0 | 0.00 | 0.00 | 0.00 | 75 | 1020.0 |
| 20260506144517 | 57 | 39 | 1.0 | 6.0 | 0.00 | 0.00 | 0.00 | 76 | 1020.0 |
| 20260506144008 | 56 | 34 | 1.0 | 6.0 | 0.00 | 0.00 | 0.00 | 77 | 1020.0 |
| 20260506143508 | 56 | 32 | 1.0 | 4.0 | 0.00 | 0.00 | 0.00 | 78 | 1019.9 |
| 20260506143029 | 56 | 29 | 1.0 | 4.0 | 0.00 | 0.00 | 0.00 | 79 | 1019.9 |
| 20260506142509 | 55 | 71 | 1.0 | 4.0 | 0.00 | 0.00 | 0.00 | 80 | 1019.9 |
| 20260506142004 | 54 | 31 | 1.0 | 4.0 | 0.00 | 0.00 | 0.00 | 81 | 1019.8 |
| 20260506141509 | 54 | 52 | 0.0 | 2.0 | 0.00 | 0.00 | 0.00 | 83 | 1019.8 |
| 20260506141009 | 53 | 65 | 0.0 | 2.0 | 0.00 | 0.00 | 0.00 | 83 | 1019.8 |
| 20260506140505 | 52 | 68 | 0.0 | 2.0 | 0.00 | 0.00 | 0.00 | 84 | 1019.7 |
| 20260506140010 | 52 | 77 | 1.0 | 2.0 | 0.00 | 0.00 | 0.00 | 84 | 1019.7 |
| 20260506135503 | 52 | 67 | 0.0 | 2.0 | 0.00 | 0.00 | 0.00 | 84 | 1019.7 |
| 20260506135006 | 51 | 93 | 0.0 | 2.0 | 0.00 | 0.00 | 0.00 | 85 | 1019.6 |
| 20260506134514 | 51 | 62 | 0.0 | 2.0 | 0.00 | 0.00 | 0.00 | 85 | 1019.7 |
| 20260506134011 | 51 | 78 | 0.0 | 2.0 | 0.00 | 0.00 | 0.00 | 85 | 1019.6 |
| 20260506133510 | 51 | 91 | 0.0 | 0.0 | 0.00 | 0.00 | 0.00 | 85 | 1019.6 |
| 20260506133020 | 51 | 91 | 0.0 | 0.0 | 0.00 | 0.00 | 0.00 | 85 | 1019.5 |
| 20260506132510 | 51 | 90 | 0.0 | 0.0 | 0.00 | 0.00 | 0.00 | 84 | 1019.5 |
| 20260506132005 | 51 | 90 | 0.0 | 0.0 | 0.00 | 0.00 | 0.00 | 84 | 1019.5 |
| 20260506131503 | 52 | 90 | 0.0 | 2.0 | 0.00 | 0.00 | 0.00 | 84 | 1019.5 |
| 20260506131005 | 52 | 91 | 0.0 | 2.0 | 0.00 | 0.00 | 0.00 | 84 | 1019.4 |
| 20260506130506 | 52 | 92 | 0.0 | 2.0 | 0.00 | 0.00 | 0.00 | 84 | 1019.4 |
| 20260506130013 | 52 | 92 | 0.0 | 3.0 | 0.00 | 0.00 | 0.00 | 84 | 1019.2 |
| 20260506125507 | 52 | 53 | 1.0 | 3.0 | 0.00 | 0.00 | 0.00 | 85 | 1019.2 |
| 20260506125008 | 51 | 63 | 0.0 | 0.0 | 0.00 | 0.00 | 0.00 | 85 | 1019.1 |
| 20260506124514 | 52 | 68 | 0.0 | 0.0 | 0.00 | 0.00 | 0.00 | 85 | 1019.1 |
| 20260506124008 | 52 | 57 | 0.0 | 0.0 | 0.00 | 0.00 | 0.00 | 85 | 1019.1 |
| 20260506123510 | 52 | 57 | 0.0 | 0.0 | 0.00 | 0.00 | 0.00 | 85 | 1019.1 |
| 20260506123023 | 52 | 57 | 0.0 | 0.0 | 0.00 | 0.00 | 0.00 | 84 | 1019.1 |
| 20260506122510 | 52 | 57 | 0.0 | 3.0 | 0.00 | 0.00 | 0.00 | 84 | 1019.0 |
| 20260506122012 | 52 | 57 | 0.0 | 3.0 | 0.00 | 0.00 | 0.00 | 84 | 1018.9 |
| 20260506121525 | 52 | 57 | 0.0 | 2.0 | 0.00 | 0.00 | 0.00 | 84 | 1018.8 |
| 20260506121004 | 53 | 52 | 0.0 | 2.0 | 0.00 | 0.00 | 0.00 | 84 | 1018.8 |
| 20260506120505 | 53 | 52 | 0.0 | 2.0 | 0.00 | 0.00 | 0.00 | 84 | 1018.7 |
| 20260506120009 | 53 | 48 | 0.0 | 2.0 | 0.00 | 0.00 | 0.00 | 85 | 1018.7 |
| 20260506115502 | 53 | 53 | 0.0 | 2.0 | 0.00 | 0.00 | 0.00 | 85 | 1018.7 |
| 20260506115009 | 53 | 67 | 0.0 | 2.0 | 0.00 | 0.00 | 0.00 | 84 | 1018.7 |
| 20260506114511 | 53 | 67 | 0.0 | 2.0 | 0.00 | 0.00 | 0.00 | 84 | 1018.7 |
| 20260506114011 | 53 | 82 | 0.0 | 2.0 | 0.00 | 0.00 | 0.00 | 85 | 1018.7 |
| 20260506113507 | 53 | 33 | 1.0 | 2.0 | 0.00 | 0.00 | 0.00 | 85 | 1018.7 |
| 20260506113026 | 52 | 26 | 0.0 | 2.0 | 0.00 | 0.00 | 0.00 | 85 | 1018.7 |
| 20260506112510 | 52 | 44 | 1.0 | 2.0 | 0.00 | 0.00 | 0.00 | 85 | 1018.7 |
| 20260506112013 | 52 | 49 | 1.0 | 2.0 | 0.00 | 0.00 | 0.00 | 85 | 1018.6 |
| 20260506111519 | 53 | 71 | 0.0 | 2.0 | 0.00 | 0.00 | 0.00 | 84 | 1018.7 |
| 20260506111013 | 53 | 46 | 0.0 | 3.0 | 0.00 | 0.00 | 0.00 | 85 | 1018.7 |
| 20260506110509 | 53 | 25 | 1.0 | 3.0 | 0.00 | 0.00 | 0.00 | 85 | 1018.7 |
| 20260506110008 | 53 | 32 | 0.0 | 3.0 | 0.00 | 0.00 | 0.00 | 85 | 1018.7 |
| 20260506105505 | 53 | 40 | 0.0 | 2.0 | 0.00 | 0.00 | 0.00 | 85 | 1018.7 |
| 20260506105007 | 53 | 44 | 0.0 | 3.0 | 0.00 | 0.00 | 0.00 | 85 | 1018.7 |
| 20260506104509 | 53 | 15 | 0.0 | 3.0 | 0.00 | 0.00 | 0.00 | 85 | 1018.7 |
| 20260506104006 | 53 | 11 | 0.0 | 2.0 | 0.00 | 0.00 | 0.00 | 85 | 1018.6 |
| 20260506103507 | 53 | 49 | 0.0 | 2.0 | 0.00 | 0.00 | 0.00 | 85 | 1018.5 |
| 20260506103014 | 53 | 28 | 0.0 | 2.0 | 0.00 | 0.00 | 0.00 | 85 | 1018.5 |
| 20260506102508 | 53 | 42 | 0.0 | 2.0 | 0.00 | 0.00 | 0.00 | 85 | 1018.4 |
| 20260506102011 | 53 | 34 | 1.0 | 3.0 | 0.00 | 0.00 | 0.00 | 85 | 1018.5 |
| 20260506101519 | 53 | 40 | 1.0 | 3.0 | 0.00 | 0.00 | 0.00 | 85 | 1018.5 |
| 20260506101007 | 53 | 24 | 0.0 | 3.0 | 0.00 | 0.00 | 0.00 | 86 | 1018.6 |
| 20260506100508 | 53 | 347 | 1.0 | 3.0 | 0.00 | 0.00 | 0.00 | 85 | 1018.5 |
| 20260506100027 | 53 | 60 | 1.0 | 3.0 | 0.00 | 0.00 | 0.00 | 85 | 1018.5 |
| 20260506095509 | 52 | 53 | 0.0 | 3.0 | 0.00 | 0.00 | 0.00 | 85 | 1018.5 |
| 20260506095006 | 52 | 36 | 0.0 | 3.0 | 0.00 | 0.00 | 0.00 | 85 | 1018.5 |
| 20260506094506 | 52 | 344 | 0.0 | 2.0 | 0.00 | 0.00 | 0.00 | 85 | 1018.5 |
| 20260506094005 | 53 | 85 | 0.0 | 2.0 | 0.00 | 0.00 | 0.00 | 84 | 1018.6 |
| 20260506093506 | 53 | 81 | 0.0 | 2.0 | 0.00 | 0.00 | 0.00 | 84 | 1018.7 |
| 20260506093011 | 54 | 79 | 0.0 | 2.0 | 0.00 | 0.00 | 0.00 | 84 | 1018.7 |
| 20260506092507 | 54 | 61 | 0.0 | 2.0 | 0.00 | 0.00 | 0.00 | 84 | 1018.7 |
| 20260506092010 | 54 | 64 | 0.0 | 2.0 | 0.00 | 0.00 | 0.00 | 84 | 1018.8 |
| 20260506091519 | 54 | 39 | 0.0 | 2.0 | 0.00 | 0.00 | 0.00 | 85 | 1018.7 |
| 20260506091009 | 54 | 55 | 0.0 | 2.0 | 0.00 | 0.00 | 0.00 | 85 | 1018.8 |
| 20260506090510 | 54 | 55 | 0.0 | 2.0 | 0.00 | 0.00 | 0.00 | 85 | 1018.8 |
| 20260506090035 | 54 | 46 | 0.0 | 2.0 | 0.00 | 0.00 | 0.00 | 85 | 1018.9 |
| 20260506085511 | 54 | 67 | 0.0 | 1.0 | 0.00 | 0.00 | 0.00 | 85 | 1018.8 |
| 20260506085009 | 53 | 67 | 0.0 | 1.0 | 0.00 | 0.00 | 0.00 | 84 | 1018.8 |
| 20260506084526 | 53 | 67 | 0.0 | 2.0 | 0.00 | 0.00 | 0.00 | 84 | 1018.9 |
| 20260506084009 | 54 | 67 | 0.0 | 2.0 | 0.00 | 0.00 | 0.00 | 83 | 1019.0 |
| 20260506083506 | 54 | 67 | 0.0 | 2.0 | 0.00 | 0.00 | 0.00 | 83 | 1018.9 |
| 20260506083011 | 55 | 53 | 0.0 | 2.0 | 0.00 | 0.00 | 0.00 | 84 | 1018.9 |
| 20260506082506 | 55 | 53 | 0.0 | 2.0 | 0.00 | 0.00 | 0.00 | 83 | 1018.8 |
| 20260506082007 | 55 | 29 | 0.0 | 2.0 | 0.00 | 0.00 | 0.00 | 83 | 1018.9 |
| 20260506081518 | 55 | 28 | 0.0 | 3.0 | 0.00 | 0.00 | 0.00 | 83 | 1018.9 |
| 20260506081008 | 55 | 49 | 1.0 | 3.0 | 0.00 | 0.00 | 0.00 | 83 | 1018.9 |
| 20260506080509 | 55 | 46 | 0.0 | 3.0 | 0.00 | 0.00 | 0.00 | 83 | 1019.1 |
| 20260506073511 | 55 | 43 | 1.0 | 3.0 | 0.00 | 0.00 | 0.00 | 84 | 1018.8 |
| 20260506073028 | 55 | 42 | 1.0 | 3.0 | 0.00 | 0.00 | 0.00 | 84 | 1018.8 |
| 20260506072511 | 55 | 52 | 1.0 | 2.0 | 0.00 | 0.00 | 0.00 | 84 | 1018.7 |
| 20260506072008 | 55 | 51 | 1.0 | 2.0 | 0.00 | 0.00 | 0.00 | 84 | 1018.8 |
| 20260506071511 | 55 | 50 | 1.0 | 2.0 | 0.00 | 0.00 | 0.00 | 84 | 1018.7 |
| 20260506071007 | 55 | 36 | 0.0 | 2.0 | 0.00 | 0.00 | 0.00 | 84 | 1018.7 |
| 20260506070506 | 55 | 60 | 0.0 | 2.0 | 0.00 | 0.00 | 0.00 | 84 | 1018.6 |
| 20260506062511 | 55 | 57 | 0.0 | 2.0 | 0.00 | 0.00 | 0.00 | 83 | 1018.1 |
| 20260506062013 | 55 | 57 | 0.0 | 2.0 | 0.00 | 0.00 | 0.00 | 83 | 1018.2 |
| 20260506061520 | 56 | 57 | 0.0 | 2.0 | 0.00 | 0.00 | 0.00 | 83 | 1018.2 |
| 20260506061009 | 56 | 62 | 0.0 | 2.0 | 0.00 | 0.00 | 0.00 | 83 | 1018.1 |
| 20260506060507 | 56 | 62 | 0.0 | 2.0 | 0.00 | 0.00 | 0.00 | 82 | 1018.1 |